sat.trackr.live / text

‹ back to catalog

STARLINK-30255

NORAD 57606 · 2023-119E

PAYLOAD ACTIVE UNKNOWN

§ Identity

Operator
Country
US
Launch date
2023-08-11
Launch site
AFETR
Launch vehicle
Mass (kg)
RCS (m²)

Purposes: comms

External: N2YO · Heavens-Above · Gunter

§ Orbital elements

Epoch: 2026-05-25T00:46:30.491040Z

Period
94.27 min
Inclination
43.0037°
Eccentricity
0.0001267
Mean motion
15.27576214 rev/d
Perigee alt
482.2 km
Apogee alt
483.9 km
Semi-major
6,861.2 km
B*
2.4057e-5
RAAN
10.2981°
Arg perigee
276.4320°
Mean anomaly
83.6388°
Rev number
15,476

§ Raw data

STARLINK-302551 57606U 23119E   26145.03229735  .00000400  00000+0  24057-4 0  99942 57606  43.0037  10.2981 0001267 276.4320  83.6388 15.27576214154763

JSON: /api/v1/satellites/57606 · /tle

For live sub-satellite position, see the globe view (requires WebGL).

§ Visibility from observer

Set your observer location to see the next 7 days of passes ≥ 10°. The values pass through the URL so the page stays shareable.

No JS? Fill the form by hand. The geolocation button needs JavaScript.